This demonstration page uses our WeatherBlox Daily Observations layout. Learn more.

Left ArrowRight Arrow

39.08367, -84.50855

Hourly Observations for August 15, 2015

Temp ( °F °C ) Dew Point ( °F °C ) Humidity (%) Winds ( mph kmh ) Pressure ( in mb ) Visibility ( mi km ) Precip ( " mm )
12:53 am 00:53 Clear with Mist and Fog 65 18.3 64 17.8 97 97 N N/A 30.14 1021 6 10 N/A
1:53 am 01:53 Clear with Mist and Fog 63 17.2 63 17.2 100 100 N N/A 30.13 1020 3 5 N/A
2:08 am 02:08 Clear with Mist and Fog 63 17 63 17 100 100 N N/A 30.12 1020 3 4 N/A
2:19 am 02:19 Clear with Mist and Fog 64 17.8 64 17.8 100 100 N N/A 30.12 1020 5 8 N/A
2:53 am 02:53 Clear with Mist and Fog 64 17.8 64 17.8 100 100 N N/A 30.13 1020 4 6 N/A
3:05 am 03:05 Clear with Mist and Fog 61 16.1 61 16.1 100 100 SSW 3 6 30.12 1020 2 3 N/A
3:15 am 03:15 Clear with Fog 62 16.7 62 16.7 100 100 N N/A 30.12 1020 1 1 N/A
3:29 am 03:29 Clear with Mist and Fog 61 16.1 61 16.1 100 100 NE 3 6 30.12 1020 2 2 N/A
3:38 am 03:38 Clear with Mist and Fog 63 17 63 17 100 100 E 3 6 30.12 1020 3 5 N/A
3:53 am 03:53 Clear with Mist and Fog 63 17.2 63 17.2 100 100 SE 3 6 30.13 1020 4 6 N/A
4:07 am 04:07 Clear with Mist and Fog 62 16.7 62 16.7 100 100 N N/A 30.12 1020 2 3 N/A
4:16 am 04:16 Clear with Mist and Fog 63 17 63 17 100 100 N N/A 30.12 1020 1 1 N/A
4:21 am 04:21 Clear with Mist and Fog 63 17.2 63 17.2 100 100 N N/A 30.12 1020 2 3 N/A
4:33 am 04:33 Clear with Mist and Fog 63 17.2 63 17.2 100 100 N N/A 30.12 1020 1 2 N/A
4:53 am 04:53 Mostly Clear with Mist and Fog 63 17.2 63 17.2 100 100 N N/A 30.14 1021 2 3 N/A
5:03 am 05:03 Mostly Clear with Mist and Fog 63 17 63 17 100 100 N N/A 30.12 1020 3 5 N/A
5:53 am 05:53 Mostly Clear with Mist and Fog 63 17.2 63 17.2 100 100 SW 3 6 30.14 1021 3 5 N/A
6:53 am 06:53 Sunny with Mist and Fog 63 17.2 63 17.2 100 100 N N/A 30.13 1020 4 6 N/A
7:53 am 07:53 Sunny with Mist and Fog 65 18.3 65 18.3 100 100 VRB 3 6 30.14 1021 4 6 N/A
8:53 am 08:53 Sunny 69 20.6 66 18.9 90 90 SSE 6 9 30.14 1021 9 14 N/A
9:53 am 09:53 Sunny 72 22.2 66 18.9 82 82 N N/A 30.16 1021 10 16 N/A
10:53 am 10:53 Sunny 74 23.3 66 18.9 76 76 W 6 9 30.17 1022 10 16 N/A
11:53 am 11:53 Mostly Cloudy with Light Rain 75 23.9 67 19.4 76 76 WNW 5 7 30.17 1022 10 16 N/A
12:53 pm 12:53 Sunny 77 25 68 20 74 74 SW 5 7 30.16 1022 10 16 N/A
1:53 pm 13:53 Sunny 82 27.8 68 20 63 63 VRB 5 7 30.14 1021 10 16 N/A
2:53 pm 14:53 Mostly Sunny 84 28.9 66 18.9 55 55 VRB 3 6 30.13 1020 10 16 N/A
3:53 pm 15:53 Mostly Sunny 82 27.8 68 20 63 63 NW 8 13 30.12 1020 10 16 N/A
4:53 pm 16:53 Partly Cloudy 83 28.3 67 19.4 59 59 W 9 15 30.10 1019 10 16 N/A
5:53 pm 17:53 Sunny 82 27.8 65 18.3 56 56 W 6 9 30.09 1019 10 16 N/A
6:53 pm 18:53 Mostly Sunny 83 28.3 65 18.3 55 55 N 7 11 30.09 1019 10 16 N/A
7:53 pm 19:53 Mostly Sunny 79 26.1 64 17.8 60 60 VRB 5 7 30.10 1019 10 16 N/A
8:53 pm 20:53 Mostly Clear 72 22.2 68 20 87 87 N N/A 30.11 1020 10 16 N/A
9:53 pm 21:53 Clear 70 21.1 67 19.4 90 90 N N/A 30.14 1021 10 16 N/A
10:53 pm 22:53 Clear 68 20 66 18.9 93 93 N N/A 30.14 1021 10 16 N/A
11:53 pm 23:53 Clear 67 19.4 66 18.9 97 97 N N/A 30.14 1021 10 16 N/A

Powered by AerisWeather